NOAA 16 DEB

Satellite information

Favourite Embed

Satellite Type and Status

DEBRISIN ORBIT

Key statistics

Satellite NOAA 16 DEB at a glance.

Uptime

9215

Days in orbit

Revolutions

≈ 14.5

Per day

Orbit

SSO

Sun Synchronous Orbit

Inclination

99.0

Latest

Satellite identification and parameters

Extended collection of information and parameters for NOAA 16 DEB.

Object identification

Identified? True

Debris? True

Object name: NOAA 16 DEB

International designator: 2000-055KX

Object number (NORAD): 41418

Object ID (CCSDS): 41418

Country: UNITED STATES OF AMERICA (US)

Current information (Y/N): Y

RCS size: SMALL

Orbital parameters

Period: 99.391 minutes

Inclination: 99.0166 deg

SMA: 7107.643 km

Apoapsis: 750.618 km

Periapsis: 708.398 km

RAAN: 205.2199 deg

Eccentricy: 0.00297007

Argument of periapsis: 315.4854 deg

Mean anomaly: 44.3952 deg

Mean motion: 14.48819787 rev/day

Mean motion (dot): 0.00013247 rev/day2

B* drag term: 0.0034940311 1/REarth

Two-line elements (TLE)

Creation date: Dec. 11, 2025, 10:54 a.m.

Reference frame: TEME

Reference center: EARTH

Epoch: Dec. 11, 2025, 2:14 a.m. UTC

TLE line 0: 0 NOAA 16 DEB

TLE line 1: 1 41418U 00055KX 25345.09331655 .00013247 00000-0 34940-2 0 9998

TLE line 2: 2 41418 99.0166 205.2199 0029701 315.4854 44.3952 14.48819787510019

Live tracking on map

Real-time ground track for satellite NOAA 16 DEB.

In-orbit conjunctions

A list of the most updated potential collisions computed for object NOAA 16 DEB.

Target Orbit TCA Probability of collision Miss distance Type
SL-8 R/B LEO 2024-11-21 07:55:58 0.000274172 86.0 (m) ROCKET BODY
GAOFEN 3 DEB SSO 2024-11-10 21:08:24 0.000131605 333.0 (m) DEBRIS
CZ-4B DEB SSO 2024-06-22 08:32:06 0.0002006443 167.0 (m) DEBRIS

Associated space launch

The NOAA K, L and M POES satellites begin the fifth generation of improved environmental monitoring in support of NOAA missions. The instrument payload has significant improvements and additions/deletions. The instrument changes have effected the spacecraft subsystems and data formats.

NOAA 16 DEB was lifted into orbit during the mission ‘Titan II SLV | NOAA 16’, on board a Titan II SLV space rocket.

The launch took place on Sept. 21, 2000, 10:22 a.m. from Space Launch Complex 4W.

For more information about the launch, click the button.

Launch to space Titan II SLV | NOAA 16
Titan II SLV | NOAA 16

Agency: N/A

Status: Launch Successful

Launch date: Sept. 21, 2000, 10:22 a.m. UTC

Rocket: Titan II SLV

Launch pad: Space Launch Complex 4W

Location: Vandenberg SFB, CA, USA

...

Latest news about this satellite

There are no fresh news available about this satellite. Check back as we update our databases every day.


Newsletter sign-up

Weekly statistics, charts and insights to help you stay on top of the space industry.